When you browse on this site, cookies collect data to enhance your experience and personalize the content and advertising you see.
Visit our Privacy Policy to learn more. By continuing to use the site, you agree to this use of cookies and data.
  • In Hungary
  • List of Countries
  • For 7 days
  • Water Temperature
  • Satellite Maps
  • Weather Map
  • News
  • Weather Widgets
  • user-avatar
    Login

    Hourly Weather Santa Ana Chiautempan

    Today, 19 February, Tuesday

    Time Temperature Precipitation Wind Pressure Humidity
    00:00 +15°C° 0 mm 2 mps 577 mmHg 62%
    01:00 +14°C° 0 mm 2 mps 577 mmHg 68%
    02:00 +14°C° 0 mm 2 mps 576 mmHg 74%
    03:00 +13°C° 0 mm 1 mps 576 mmHg 74%
    04:00 +13°C° 0 mm 1 mps 576 mmHg 73%
    05:00 +12°C° 0 mm 1 mps 575 mmHg 72%
    06:00 +14°C° 0 mm 2 mps 576 mmHg 65%
    07:00 +15°C° 0 mm 2 mps 577 mmHg 57%
    08:00 +16°C° 0 mm 3 mps 578 mmHg 49%
    09:00 +18°C° 0 mm 4 mps 579 mmHg 41%
    10:00 +20°C° 0 mm 5 mps 579 mmHg 33%
    11:00 +22°C° 0 mm 6 mps 580 mmHg 25%
    12:00 +22°C° 0 mm 6 mps 579 mmHg 23%
    13:00 +23°C° 0 mm 6 mps 579 mmHg 20%
    14:00 +23°C° 0 mm 7 mps 578 mmHg 17%
    15:00 +22°C° 0 mm 6 mps 578 mmHg 19%
    16:00 +21°C° 0 mm 6 mps 577 mmHg 22%
    17:00 +20°C° 0 mm 5 mps 577 mmHg 24%
    18:00 +18°C° 0 mm 4 mps 576 mmHg 28%
    19:00 +17°C° 0 mm 3 mps 576 mmHg 31%
    20:00 +15°C° 0 mm 2 mps 576 mmHg 35%
    21:00 +15°C° 0 mm 1 mps 576 mmHg 38%
    22:00 +14°C° 0 mm 1 mps 575 mmHg 40%
    23:00 +14°C° 0 mm 1 mps 575 mmHg 42%

    Tomorrow, 20 February, Wednesday

    Time Temperature Precipitation Wind Pressure Humidity
    00:00 +13°C° 0 mm 1 mps 575 mmHg 45%
    01:00 +13°C° 0 mm 1 mps 574 mmHg 48%
    02:00 +12°C° 0 mm 1 mps 574 mmHg 51%
    03:00 +12°C° 0 mm 1 mps 573 mmHg 52%
    04:00 +11°C° 0 mm 1 mps 573 mmHg 53%
    05:00 +11°C° 0 mm 1 mps 573 mmHg 54%
    06:00 +12°C° 0 mm 1 mps 574 mmHg 50%
    07:00 +14°C° 0 mm 1 mps 575 mmHg 46%
    08:00 +15°C° 0 mm 1 mps 576 mmHg 42%
    09:00 +17°C° 0 mm 2 mps 577 mmHg 36%
    10:00 +20°C° 0 mm 3 mps 578 mmHg 31%
    11:00 +22°C° 0 mm 3 mps 579 mmHg 25%
    12:00 +22°C° 0 mm 4 mps 578 mmHg 24%
    13:00 +23°C° 0 mm 5 mps 578 mmHg 22%
    14:00 +24°C° 0 mm 6 mps 577 mmHg 20%
    15:00 +22°C° 0 mm 6 mps 577 mmHg 22%
    16:00 +21°C° 0 mm 6 mps 576 mmHg 24%
    17:00 +20°C° 0 mm 6 mps 576 mmHg 26%
    18:00 +18°C° 0 mm 4 mps 576 mmHg 29%
    19:00 +17°C° 0 mm 3 mps 576 mmHg 33%
    20:00 +15°C° 0 mm 2 mps 576 mmHg 37%
    21:00 +15°C° 0 mm 2 mps 576 mmHg 39%
    22:00 +14°C° 0 mm 2 mps 575 mmHg 41%
    23:00 +14°C° 0 mm 2 mps 575 mmHg 43%

    Day after tomorrow, 21 February, Thursday

    Time Temperature Precipitation Wind Pressure Humidity
    00:00 +13°C° 0 mm 2 mps 575 mmHg 45%
    01:00 +12°C° 0 mm 2 mps 574 mmHg 46%
    02:00 +12°C° 0 mm 2 mps 574 mmHg 47%
    03:00 +10°C° 0 mm 2 mps 574 mmHg 49%
    04:00 +11°C° 0 mm 1 mps 574 mmHg 51%
    05:00 +10°C° 0 mm 1 mps 574 mmHg 53%
    06:00 +12°C° 0 mm 1 mps 575 mmHg 48%
    07:00 +14°C° 0 mm 2 mps 576 mmHg 44%
    08:00 +15°C° 0 mm 2 mps 577 mmHg 39%
    09:00 +17°C° 0 mm 2 mps 578 mmHg 34%
    10:00 +20°C° 0 mm 3 mps 578 mmHg 28%
    11:00 +22°C° 0 mm 4 mps 579 mmHg 22%
    12:00 +22°C° 0 mm 4 mps 579 mmHg 21%
    13:00 +23°C° 0 mm 5 mps 578 mmHg 20%
    14:00 +25°C° 0 mm 5 mps 578 mmHg 18%
    15:00 +23°C° 0 mm 5 mps 577 mmHg 20%
    16:00 +22°C° 0 mm 5 mps 577 mmHg 22%
    17:00 +21°C° 0 mm 5 mps 576 mmHg 23%
    18:00 +19°C° 0 mm 4 mps 576 mmHg 27%
    19:00 +17°C° 0 mm 3 mps 576 mmHg 31%
    20:00 +15°C° 0 mm 2 mps 576 mmHg 35%
    21:00 +15°C° 0 mm 1 mps 576 mmHg 37%
    22:00 +14°C° 0 mm 1 mps 576 mmHg 39%
    23:00 +13°C° 0 mm 0 mps 576 mmHg 40%

    22 February, Friday

    Time Temperature Precipitation Wind Pressure Humidity
    00:00 +12°C° 0 mm 0 mps 575 mmHg 42%
    01:00 +12°C° 0 mm 0 mps 575 mmHg 43%
    02:00 +11°C° 0 mm 0 mps 574 mmHg 45%
    03:00 +11°C° 0 mm 0 mps 574 mmHg 46%
    04:00 +11°C° 0 mm 0 mps 574 mmHg 48%
    05:00 +10°C° 0 mm 0 mps 574 mmHg 49%
    06:00 +12°C° 0 mm 0 mps 576 mmHg 44%
    07:00 +14°C° 0 mm 0 mps 577 mmHg 39%
    08:00 +18°C° 0 mm 1 mps 578 mmHg 33%
    09:00 +20°C° 0 mm 1 mps 579 mmHg 28%
    10:00 +21°C° 0 mm 2 mps 580 mmHg 23%
    11:00 +24°C° 0 mm 2 mps 580 mmHg 18%
    12:00 +24°C° 0 mm 3 mps 580 mmHg 17%
    13:00 +25°C° 0 mm 3 mps 580 mmHg 16%
    14:00 +26°C° 0 mm 3 mps 579 mmHg 16%
    15:00 +25°C° 0 mm 4 mps 579 mmHg 18%
    16:00 +23°C° 0 mm 4 mps 578 mmHg 21%
    17:00 +22°C° 0 mm 4 mps 578 mmHg 24%
    18:00 +20°C° 0 mm 3 mps 578 mmHg 28%
    19:00 +18°C° 0 mm 2 mps 577 mmHg 32%
    20:00 +16°C° 0 mm 1 mps 577 mmHg 37%
    21:00 +16°C° 0 mm 1 mps 577 mmHg 39%
    22:00 +15°C° 0 mm 1 mps 577 mmHg 41%
    23:00 +15°C° 0 mm 1 mps 577 mmHg 43%

    23 February, Saturday

    Time Temperature Precipitation Wind Pressure Humidity
    00:00 +14°C° 0 mm 1 mps 576 mmHg 45%
    01:00 +14°C° 0 mm 1 mps 576 mmHg 47%
    02:00 +13°C° 0 mm 1 mps 575 mmHg 49%
    03:00 +13°C° 0 mm 1 mps 575 mmHg 50%
    04:00 +12°C° 0 mm 1 mps 575 mmHg 51%
    05:00 +12°C° 0 mm 1 mps 575 mmHg 52%
    06:00 +13°C° 0 mm 1 mps 577 mmHg 48%
    07:00 +15°C° 0 mm 1 mps 578 mmHg 44%
    08:00 +16°C° 0 mm 1 mps 579 mmHg 40%
    09:00 +19°C° 0 mm 1 mps 579 mmHg 37%
    10:00 +21°C° 0 mm 1 mps 580 mmHg 33%
    11:00 +23°C° 0 mm 2 mps 581 mmHg 29%
    12:00 +24°C° 0 mm 2 mps 580 mmHg 28%
    13:00 +25°C° 0 mm 3 mps 580 mmHg 26%
    14:00 +25°C° 0 mm 4 mps 580 mmHg 24%
    15:00 +25°C° 0 mm 3 mps 579 mmHg 27%
    16:00 +24°C° 0 mm 3 mps 579 mmHg 29%
    17:00 +22°C° 0 mm 3 mps 579 mmHg 31%
    18:00 +21°C° 0 mm 2 mps 579 mmHg 33%
    19:00 +20°C° 0 mm 2 mps 579 mmHg 35%
    20:00 +20°C° 0 mm 1 mps 579 mmHg 37%
    21:00 +19°C° 0 mm 1 mps 579 mmHg 39%
    22:00 +18°C° 0 mm 1 mps 578 mmHg 42%
    23:00 +16°C° 0 mm 0 mps 578 mmHg 45%

    24 February, Sunday

    Time Temperature Precipitation Wind Pressure Humidity
    00:00 +15°C° 0 mm 0 mps 577 mmHg 46%
    01:00 +14°C° 0 mm 0 mps 577 mmHg 48%
    02:00 +14°C° 0 mm 0 mps 576 mmHg 49%
    03:00 +13°C° 0 mm 0 mps 576 mmHg 50%
    04:00 +13°C° 0 mm 0 mps 576 mmHg 52%
    05:00 +12°C° 0 mm 0 mps 576 mmHg 53%
    06:00 +15°C° 0 mm 1 mps 577 mmHg 50%
    07:00 +16°C° 0 mm 1 mps 578 mmHg 48%
    08:00 +19°C° 0 mm 1 mps 579 mmHg 46%
    09:00 +19°C° 0 mm 2 mps 580 mmHg 41%
    10:00 +21°C° 0 mm 2 mps 580 mmHg 36%
    11:00 +24°C° 0 mm 2 mps 581 mmHg 32%
    12:00 +24°C° 0 mm 3 mps 580 mmHg 30%
    13:00 +25°C° 0 mm 3 mps 580 mmHg 28%
    14:00 +25°C° 0 mm 4 mps 579 mmHg 27%
    15:00 +23°C° 0 mm 4 mps 579 mmHg 28%
    16:00 +23°C° 0 mm 4 mps 579 mmHg 30%
    17:00 +22°C° 0 mm 4 mps 578 mmHg 32%
    18:00 +20°C° 0 mm 3 mps 578 mmHg 37%
    19:00 +19°C° 0 mm 2 mps 578 mmHg 42%
    20:00 +18°C° 0 mm 2 mps 578 mmHg 47%
    21:00 +18°C° 0 mm 1 mps 578 mmHg 52%
    22:00 +16°C° 0 mm 1 mps 578 mmHg 57%
    23:00 +15°C° 0 mm 0 mps 577 mmHg 62%
    Show more